COSMOS 1386

导读

**COSMOS 1386卫星摘要** 该卫星是苏联/独联体(CIS)于1982年7月7日发射的“宇宙”系列卫星,遵循苏联军事卫星统一命名规则。该系列通过序号命名模糊卫星用途,增强保密性。冷战期间,苏联发射超2500颗“宇宙”卫星,涵盖军事侦察、科学试验等任务,多数已退役成为空间碎片。作为该批量产物之一,它反映了当时太空军事化背景下苏联航天发展特征。

基本信息
目录编号:
13353
目录名称:
COSMOS 1386
国际标识:
1982-069A
轨道中心:
EARTH
卫星名称:
COSMOS 1386
卫星全名:
--
卫星状态:
在轨 (已飞行16046 天)
发射日期:
1982-07-07 UTC
国别 :
俄罗斯(独联体) (CIS)
星等 :
--
轨道信息
数据来源 国际轨道数据 AOE轨道数据
星历时间 2026-06-12T14:22:21+0800
13小时前
查看轨道信息
2026-06-10T05:00:00+0800
2天前
查看轨道信息
半长轴 7354.009km 7354.012km
偏心率 0.0040174 0.004023
轨道倾角 82.963° 82.962°
近地点辐角 79.972° 86.489°
升交点赤经 109.306° 111.076°
平近点角 280.597° 313.692°
近地点 946.328km 946.289km
远地点 1005.416km 1005.461km
周期 104.603分钟 104.603分钟
每日圈数 13.766278 13.766272
详细信息
使用方式:
暂无
2D轨道图
3D轨道图
轨道高度分析图
轨道倾角分析图
轨道综合分析图
查看轨道综合分析图